Location: Unspecified
(0.0000°N, 0.0000°E)
Time: 10:50:13
(UTC+00:00)

Galileo 6 - Pass Details

Date: 08 December 2022
Orbit: 17095 x 26103 km, 50.1° (Epoch: 05 February)

Event Time Altitude Azimuth Distance (km) Brightness Sun altitude
Rises 04:03:16 0° 321° (NW) 23,049 ? -24.9°
Reaches altitude 10° 04:24:16 10° 321° (NW) 21,643 ? -20.1°
Maximum altitude 06:23:15 59° 252° (WSW) 19,423 ? 7.3°
Drops below altitude 10° 15:47:00 10° 44° (NE) 24,088 ? 28.6°
Sets 16:11:44 0° 41° (NE) 24,319 ? 23.0°
